Location: Arrodets-la-Barthe
(43.0306°N, 0.2829°E)
Time: 11:25:30
(UTC+00:00)

Iridium 4 Rocket - Pass Details

Date: 07 June 2022
Orbit: 585 x 902 km, 86.9° (Epoch: 01 July)

Event Time Altitude Azimuth Distance (km) Brightness Sun altitude
Rises 21:43:46 0° 358° (N) 3,196 7.8 -17.3°
Reaches altitude 10° 21:46:00 10° 359° (N) 2,314 6.9 -17.5°
Maximum altitude 21:51:14 86° 87° (E) 824 3.6 -18.0°
Enters shadow 21:54:16 28° 176° (S) 1,515 4.5 -18.3°
